DW6455 Orivesi FI current weather conditions

sailwx.info

Wind from 148 at 6 knots gusting 13

Air temperature -1.7° C
Dewpoint -4.8° C

Last reported at 2014-Oct-23 16:47 UTC.
Time now 2014-Oct-23 17:11 UTC

Location: N 61°39' E 024°21'.
View on Google Maps.

See reports from other nearby stations

  
Tides and Currents Weather Stations Pressure Air Temp Water Temp Dewpoint Dewpoint Depression Visibility Wind Speed Wind Dir Waves Ship Positions
date/time (UTC)wind fromknots sea level pressurealtimeterstation pressurevisibilityair tempwater tempwave heightnotes
2014-Oct-23 16:47 148 6 gusting 13 -1.7
2014-Oct-23 16:42 117 6 gusting 18 -1.7
2014-Oct-23 16:37 169 7 gusting 18 -1.7
2014-Oct-23 16:32 175 8 gusting 19 -1.7
2014-Oct-23 16:27 138 9 gusting 19 -1.7
2014-Oct-23 16:22 134 9 gusting 19 -1.7
2014-Oct-23 16:17 213 7 gusting 19 -1.7
2014-Oct-23 16:12 134 7 gusting 19 -1.1
2014-Oct-23 16:07 116 9 gusting 22 -1.1
2014-Oct-23 16:02 147 9 gusting 22 -1.1
2014-Oct-23 15:57 165 10 gusting 22 -1.1
2014-Oct-23 15:52 140 11 gusting 20 -1.1
2014-Oct-23 15:47 216 11 gusting 20 -1.1
2014-Oct-23 15:42 155 9 gusting 20 -1.1
2014-Oct-23 15:37 167 9 gusting 19 -1.1
2014-Oct-23 15:32 155 9 gusting 19 -1.1
2014-Oct-23 15:27 151 9 gusting 19 -1.1
2014-Oct-23 15:22 146 8 gusting 18 -1.1
2014-Oct-23 15:17 146 8 gusting 18 -1.1
2014-Oct-23 15:12 132 8 gusting 16 -1.1
2014-Oct-23 15:07 173 9 gusting 16 -1.1
2014-Oct-23 15:02 169 8 gusting 16 -1.1
2014-Oct-23 14:57 136 7 gusting 16 -1.1
2014-Oct-23 14:52 167 7 gusting 16 -1.1
2014-Oct-23 14:47 139 7 gusting 16 -1.1
2014-Oct-23 14:42 117 6 gusting 16 -1.1
2014-Oct-23 14:37 126 7 gusting 16 -1.1
2014-Oct-23 14:32 146 8 gusting 14 -1.1
2014-Oct-23 14:27 145 8 gusting 14 -1.1
2014-Oct-23 14:22 166 7 gusting 14 -1.1
2014-Oct-23 14:17 159 7 gusting 14 -1.1
2014-Oct-23 14:12 146 6 gusting 13 -1.1
2014-Oct-23 14:07 137 6 gusting 13 -1.1
2014-Oct-23 14:02 133 6 gusting 13 -1.1
2014-Oct-23 13:57 144 6 gusting 13 -1.1
2014-Oct-23 13:52 136 6 gusting 17 -1.1
2014-Oct-23 13:47 146 8 gusting 17 -1.1
2014-Oct-23 13:42 158 8 gusting 13 -1.1
2014-Oct-23 13:37 129 7 gusting 13 -1.1
2014-Oct-23 13:32 134 7 gusting 16 -1.1
2014-Oct-23 13:27 148 7 gusting 16 -1.1
2014-Oct-23 13:22 163 7 gusting 16 -1.1
2014-Oct-23 13:17 100 7 gusting 14 -1.1
2014-Oct-23 13:12 128 7 gusting 14 -1.1
2014-Oct-23 13:07 128 7 gusting 14 -1.1
2014-Oct-23 13:02 124 7 gusting 14 -1.1
2014-Oct-23 12:57 129 6 gusting 14 -1.1
2014-Oct-23 12:52 134 6 gusting 12 -1.1
2014-Oct-23 12:47 138 5 gusting 12 -1.7
2014-Oct-23 12:42 147 6 gusting 13 -1.7
2014-Oct-23 12:37 108 6 gusting 13 -1.7
2014-Oct-23 12:32 142 6 gusting 13 -1.7
2014-Oct-23 12:27 167 7 gusting 13 -1.7
2014-Oct-23 12:22 140 6 gusting 14 -1.7
2014-Oct-23 12:17 161 6 gusting 14 -1.7
2014-Oct-23 12:12 133 7 gusting 13 -1.7
2014-Oct-23 12:07 121 6 gusting 13 -1.7
2014-Oct-23 12:02 142 6 gusting 14 -1.7
2014-Oct-23 11:57 127 6 gusting 15 -1.7
2014-Oct-23 11:52 175 6 gusting 15 -1.7
2014-Oct-23 11:47 105 7 gusting 15 -1.7
2014-Oct-23 11:42 136 8 gusting 13 -1.7
2014-Oct-23 11:37 138 6 gusting 13 -1.7
2014-Oct-23 11:32 134 6 gusting 13 -1.7
2014-Oct-23 11:27 123 6 gusting 13 -1.7
2014-Oct-23 11:22 142 6 gusting 16 -1.7
2014-Oct-23 11:17 163 7 gusting 16 -1.7
2014-Oct-23 11:12 175 7 gusting 14 -1.7
2014-Oct-23 11:07 161 6 gusting 14 -1.7
2014-Oct-23 11:02 144 7 gusting 12 -1.7
2014-Oct-23 10:57 146 6 gusting 12 -1.7
2014-Oct-23 10:52 113 5 gusting 12 -1.7
2014-Oct-23 10:47 127 6 gusting 12 -1.7
2014-Oct-23 10:42 117 6 gusting 12 -2.2
2014-Oct-23 10:37 201 6 gusting 12 -2.2
2014-Oct-23 10:32 140 6 gusting 13 -2.2
2014-Oct-23 10:27 144 6 gusting 13 -2.2
2014-Oct-23 10:22 103 7 gusting 13 -2.2
2014-Oct-23 10:17 140 7 gusting 13 -2.2
2014-Oct-23 10:12 133 6 gusting 13 -2.2
2014-Oct-23 10:07 133 6 gusting 13 -2.2
2014-Oct-23 10:02 137 6 gusting 13 -2.2
2014-Oct-23 09:57 124 6 gusting 13 -2.2
2014-Oct-23 09:52 188 6 gusting 13 -2.8
2014-Oct-23 09:47 161 6 gusting 13 -2.8
2014-Oct-23 09:42 153 6 gusting 13 -2.8
2014-Oct-23 09:37 136 6 gusting 13 -2.8
2014-Oct-23 09:32 161 6 gusting 13 -2.8
2014-Oct-23 09:27 118 7 gusting 13 -2.8
2014-Oct-23 09:22 171 7 gusting 13 -2.8
2014-Oct-23 09:17 161 6 gusting 13 -2.8
2014-Oct-23 09:12 113 6 gusting 13 -2.8
2014-Oct-23 09:07 128 6 gusting 13 -3.3
2014-Oct-23 09:02 130 7 gusting 13 -3.3
2014-Oct-23 08:57 151 8 gusting 13 -3.3
2014-Oct-23 08:52 113 8 gusting 13 -3.3
2014-Oct-23 08:47 105 7 gusting 13 -3.3
2014-Oct-23 08:42 134 7 gusting 12 -3.3
2014-Oct-23 08:37 150 6 gusting 12 -3.3
2014-Oct-23 08:32 142 6 gusting 10 -3.3
2014-Oct-23 08:27 166 5 gusting 10 -3.3
2014-Oct-23 08:22 134 5 gusting 9 -3.3
2014-Oct-23 08:17 115 5 gusting 12 -3.3
2014-Oct-23 08:12 161 5 gusting 12 -3.9
2014-Oct-23 08:07 118 6 gusting 12 -3.9
2014-Oct-23 08:02 140 6 gusting 11 -3.9
2014-Oct-23 07:57 142 5 gusting 11 -3.9
2014-Oct-23 07:52 144 4 gusting 9 -3.9
2014-Oct-23 07:47 140 4 gusting 9 -3.9
2014-Oct-23 07:42 119 5 gusting 10 -3.9
2014-Oct-23 07:37 120 6 gusting 10 -3.9
2014-Oct-23 07:32 116 5 gusting 10 -4.4
2014-Oct-23 07:27 135 4 gusting 10 -4.4
2014-Oct-23 07:22 145 5 gusting 10 -4.4
2014-Oct-23 07:17 110 6 gusting 10 -4.4
2014-Oct-23 07:12 098 6 gusting 12 -4.4
2014-Oct-23 07:07 151 5 gusting 12 -4.4
2014-Oct-23 07:02 139 6 gusting 12 -4.4
2014-Oct-23 06:57 156 5 gusting 11 -5.0
2014-Oct-23 06:52 147 5 gusting 11 -5.0
2014-Oct-23 06:47 115 5 gusting 11 -5.0
2014-Oct-23 06:42 123 6 gusting 11 -5.0
2014-Oct-23 06:37 112 5 gusting 11 -5.6
2014-Oct-23 06:32 106 3 gusting 12 -5.6
2014-Oct-23 06:27 119 4 gusting 12 -5.6
2014-Oct-23 06:22 129 6 gusting 12 -5.6
2014-Oct-23 06:17 121 5 gusting 12 -5.6
2014-Oct-23 06:12 122 5 gusting 12 -5.6
2014-Oct-23 06:07 143 6 gusting 10 -5.6
2014-Oct-23 06:02 141 6 gusting 10 -5.6
2014-Oct-23 05:57 121 5 gusting 10 -5.6
2014-Oct-23 05:52 142 5 gusting 10 -5.6
2014-Oct-23 05:47 169 4 gusting 10 -5.6
2014-Oct-23 05:42 122 4 gusting 10 -6.1
2014-Oct-23 05:37 129 4 gusting 10 -6.1
2014-Oct-23 05:32 113 3 gusting 8 -6.1
2014-Oct-23 05:27 142 3 gusting 8 -6.1
2014-Oct-23 05:22 119 3 gusting 6 -6.1
2014-Oct-23 05:17 136 2 gusting 6 -6.1
2014-Oct-23 05:12 123 3 gusting 11 -6.1
2014-Oct-23 05:07 136 3 gusting 11 -6.1
2014-Oct-23 05:02 120 3 gusting 11 -6.1
2014-Oct-23 04:57 141 4 gusting 11 -5.6
2014-Oct-23 04:52 134 5 gusting 11 -5.6
2014-Oct-23 04:47 123 6 gusting 8 -5.6
2014-Oct-23 04:42 127 5 gusting 8 -5.6
2014-Oct-23 04:37 107 4 gusting 8 -5.6
2014-Oct-23 04:32 111 3 gusting 6 -6.1
2014-Oct-23 04:27 129 3 gusting 6 -6.1
2014-Oct-23 04:22 142 3 gusting 6 -6.1
2014-Oct-23 04:17 121 3 gusting 6 -6.1
2014-Oct-23 04:12 163 2 gusting 6 -5.6
2014-Oct-23 04:07 121 2 gusting 6 -5.6
2014-Oct-23 04:02 165 2 gusting 6 -5.6
2014-Oct-23 03:57 140 2 gusting 11 -5.6
2014-Oct-23 03:52 131 2 gusting 11 -5.6
2014-Oct-23 03:47 129 4 gusting 11 -5.6
2014-Oct-23 03:42 109 6 gusting 11 -5.6
2014-Oct-23 03:37 136 5 gusting 11 -5.6
2014-Oct-23 03:32 123 6 gusting 11 -5.6
2014-Oct-23 03:27 116 6 gusting 11 -5.6
2014-Oct-23 03:22 110 5 gusting 6 -5.6
2014-Oct-23 03:17 126 4 gusting 6 -5.6
2014-Oct-23 03:12 113 2 gusting 6 -5.6
2014-Oct-23 03:07 125 2 gusting 11 -5.6
2014-Oct-23 03:02 127 3 gusting 11 -5.6
2014-Oct-23 02:57 107 4 gusting 11 -5.0
2014-Oct-23 02:52 138 5 gusting 11 -5.0
2014-Oct-23 02:47 126 5 gusting 11 -5.0
2014-Oct-23 02:42 117 4 gusting 12 -5.0
2014-Oct-23 02:37 139 5 gusting 12 -5.0
2014-Oct-23 02:32 111 6 gusting 12 -5.0
2014-Oct-23 02:27 113 6 gusting 12 -5.0
2014-Oct-23 02:22 153 6 gusting 12 -5.0
2014-Oct-23 02:17 140 5 gusting 10 -5.0
2014-Oct-23 02:12 124 4 gusting 10 -4.4
2014-Oct-23 02:07 129 4 gusting 10 -4.4
2014-Oct-23 02:02 092 5 gusting 10 -4.4
2014-Oct-23 01:57 110 5 gusting 10 -4.4
2014-Oct-23 01:52 128 5 gusting 7 -4.4
2014-Oct-23 01:47 123 4 gusting 7 -4.4
2014-Oct-23 01:42 121 3 gusting 9 -4.4
2014-Oct-23 01:37 093 4 gusting 9 -4.4
2014-Oct-23 01:32 100 5 gusting 7 -4.4
2014-Oct-23 01:27 103 5 gusting 7 -4.4
2014-Oct-23 01:22 119 4 gusting 7 -4.4
2014-Oct-23 01:17 122 3 gusting 6 -4.4
2014-Oct-23 01:12 115 3 gusting 6 -3.9
2014-Oct-23 01:07 117 4 gusting 6 -3.9
2014-Oct-23 01:02 120 4 gusting 7 -3.9
2014-Oct-23 00:57 100 3 gusting 7 -3.9
2014-Oct-23 00:52 101 4 gusting 9 -3.9
2014-Oct-23 00:47 130 5 gusting 9 -3.9
2014-Oct-23 00:42 123 5 gusting 9 -3.9
2014-Oct-23 00:37 092 5 gusting 9 -3.9
2014-Oct-23 00:32 110 5 gusting 9 -3.9
2014-Oct-23 00:27 105 4 gusting 9 -3.9
2014-Oct-23 00:22 119 5 gusting 9 -3.9
2014-Oct-23 00:17 131 4 gusting 8 -3.9
2014-Oct-23 00:12 135 3 gusting 11 -3.9
2014-Oct-23 00:07 145 4 gusting 11 -3.9
2014-Oct-23 00:02 127 4 gusting 11 -3.9
2014-Oct-22 23:57 096 5 gusting 11 -3.9
2014-Oct-22 23:52 138 4 gusting 6 -3.9
2014-Oct-22 23:47 134 3 gusting 6 -3.9
2014-Oct-22 23:42 122 3 gusting 6 -3.9
2014-Oct-22 23:37 113 3 gusting 6 -4.4
2014-Oct-22 23:32 121 3 gusting 9 -4.4
2014-Oct-22 23:27 094 3 gusting 9 -4.4
2014-Oct-22 23:22 107 4 gusting 9 -4.4
2014-Oct-22 23:17 113 4 gusting 9 -4.4
2014-Oct-22 23:12 138 3 gusting 6 -4.4
2014-Oct-22 23:07 121 3 gusting 6 -5.0
2014-Oct-22 23:02 125 2 gusting 8 -5.0
2014-Oct-22 22:57 113 2 gusting 8 -5.0
2014-Oct-22 22:52 109 3 gusting 6 -5.0
2014-Oct-22 22:47 134 2 gusting 6 -5.0
2014-Oct-22 22:42 126 2 gusting 6 -5.0
2014-Oct-22 22:37 124 2 gusting 6 -5.0
2014-Oct-22 22:32 119 2 gusting 6 -5.0
2014-Oct-22 22:27 128 2 gusting 6 -5.0
2014-Oct-22 22:22 117 2 gusting 6 -5.0
2014-Oct-22 22:17 115 2 gusting 6 -5.0
2014-Oct-22 22:12 134 3 gusting 6 -5.0
2014-Oct-22 22:07 144 3 gusting 6 -5.0
2014-Oct-22 22:02 105 3 gusting 6 -5.6
2014-Oct-22 21:57 129 3 gusting 6 -5.6
2014-Oct-22 21:52 109 3 gusting 6 -5.6
2014-Oct-22 21:47 129 2 gusting 6 -5.6
2014-Oct-22 21:42 142 2 gusting 6 -6.1
2014-Oct-22 21:37 107 1 gusting 6 -6.1
2014-Oct-22 21:32 107 0 gusting 2 -6.1
2014-Oct-22 21:27 114 0 gusting 2 -6.1
2014-Oct-22 21:22 119 0 gusting 4 -6.1
2014-Oct-22 21:17 117 0 gusting 4 -6.1
2014-Oct-22 21:12 077 0 gusting 4 -6.1
2014-Oct-22 21:07 076 1 gusting 4 -6.1
2014-Oct-22 21:02 076 2 gusting 5 -6.1
2014-Oct-22 20:57 059 1 gusting 5 -6.7
2014-Oct-22 20:52 081 1 gusting 4 -6.7
2014-Oct-22 20:47 040 1 gusting 4 -6.7
2014-Oct-22 20:42 040 1 gusting 4 -6.7
2014-Oct-22 20:37 040 1 gusting 4 -6.7
2014-Oct-22 20:32 040 1 gusting 3 -6.7
2014-Oct-22 20:27 039 1 gusting 3 -6.7
2014-Oct-22 20:22 039 1 gusting 3 -6.7
2014-Oct-22 20:17 039 1 gusting 3 -6.7
2014-Oct-22 20:12 039 1 gusting 4 -6.7
2014-Oct-22 20:07 039 1 gusting 4 -6.7
2014-Oct-22 20:02 039 1 gusting 5 -6.7
2014-Oct-22 19:57 039 1 gusting 5 -6.7
2014-Oct-22 19:52 053 1 gusting 3 -6.7
2014-Oct-22 19:47 042 1 gusting 3 -6.7
2014-Oct-22 19:42 042 1 gusting 3 -6.7
2014-Oct-22 19:37 042 1 gusting 3 -6.7
2014-Oct-22 19:32 042 1 gusting 4 -6.7
2014-Oct-22 19:27 042 1 gusting 4 -6.7
2014-Oct-22 19:22 042 1 gusting 3 -6.1
2014-Oct-22 19:17 350 1 gusting 4 -6.1
2014-Oct-22 19:12 351 0 gusting 4 -6.1
2014-Oct-22 19:07 350 1 gusting 4 -6.1
2014-Oct-22 19:02 329 1 gusting 4 -6.1
2014-Oct-22 18:57 028 1 gusting 4 -6.1
2014-Oct-22 18:52 028 1 gusting 3 -6.1
2014-Oct-22 18:47 028 1 gusting 3 -5.6
2014-Oct-22 18:42 028 1 gusting 3 -5.6
2014-Oct-22 18:37 028 0 gusting 3 -5.6
2014-Oct-22 18:32 017 1 gusting 6 -5.6
2014-Oct-22 18:27 017 0 gusting 6 -5.6
2014-Oct-22 18:22 017 1 gusting 6 -5.0
2014-Oct-22 18:17 017 1 gusting 6 -5.0
2014-Oct-22 18:12 017 2 gusting 4 -5.0
2014-Oct-22 18:07 037 1 gusting 4 -5.0
2014-Oct-22 18:02 037 1 gusting 5 -5.0
2014-Oct-22 17:57 037 1 gusting 6 -5.0
2014-Oct-22 17:52 057 2 gusting 6 -4.4
2014-Oct-22 17:47 051 2 gusting 6 -4.4
2014-Oct-22 17:42 044 3 gusting 6 -4.4
2014-Oct-22 17:37 061 1 gusting 6 -4.4
2014-Oct-22 17:32 059 1 gusting 5 -4.4
2014-Oct-22 17:27 059 2 gusting 5 -4.4
2014-Oct-22 17:22 107 2 gusting 4 -4.4
2014-Oct-22 17:17 057 2 gusting 4 -4.4
2014-Oct-22 17:12 055 2 gusting 6 -4.4
2014-Oct-22 17:07 070 2 gusting 6 -4.4
2014-Oct-22 17:02 084 2 gusting 6 -4.4
2014-Oct-22 16:57 099 2 gusting 6 -4.4
2014-Oct-22 16:52 092 2 gusting 5 -4.4
2014-Oct-22 16:47 112 2 gusting 5 -4.4
2014-Oct-22 16:42 069 2 gusting 8 -4.4
2014-Oct-22 16:37 107 1 gusting 8 -4.4
2014-Oct-22 16:32 079 2 gusting 4 -4.4
2014-Oct-22 16:27 084 2 gusting 4 -4.4
2014-Oct-22 16:22 081 1 gusting 5 -4.4
2014-Oct-22 16:17 069 1 gusting 6 -4.4
2014-Oct-22 16:12 068 1 gusting 6 -3.9
2014-Oct-22 16:07 059 2 gusting 6 -3.9
2014-Oct-22 16:02 084 2 gusting 6 -3.9
2014-Oct-22 15:57 067 1 gusting 6 -3.9
2014-Oct-22 15:52 077 2 gusting 6 -3.9
2014-Oct-22 15:47 101 2 gusting 6 -3.9
2014-Oct-22 15:42 082 2 gusting 6 -3.9
2014-Oct-22 15:37 088 3 gusting 6 -3.9
2014-Oct-22 15:32 110 3 gusting 6 -3.9
2014-Oct-22 15:27 081 2 gusting 6 -3.9
2014-Oct-22 15:22 097 2 gusting 6 -3.9
2014-Oct-22 15:17 074 2 gusting 6 -3.9
2014-Oct-22 15:12 076 2 gusting 6 -3.3
2014-Oct-22 15:07 083 2 gusting 6 -3.3
2014-Oct-22 15:02 136 2 gusting 6 -3.3
2014-Oct-22 14:57 107 3 gusting 6 -3.3
2014-Oct-22 14:52 119 2 gusting 6 -3.3
2014-Oct-22 14:47 105 1 gusting 6 -3.3
2014-Oct-22 14:42 103 2 gusting 7 -3.3
2014-Oct-22 14:37 113 2 gusting 7 -3.3
2014-Oct-22 14:32 099 2 gusting 6 -3.3
2014-Oct-22 14:27 095 2 gusting 6 -2.8
2014-Oct-22 14:22 094 2 gusting 6 -2.8
2014-Oct-22 14:17 086 2 gusting 6 -2.8
2014-Oct-22 14:12 085 3 gusting 10 -2.8
2014-Oct-22 14:07 113 3 gusting 10 -2.8
2014-Oct-22 14:02 093 4 gusting 10 -2.2
2014-Oct-22 13:57 108 5 gusting 10 -2.2
2014-Oct-22 13:52 107 6 gusting 8 -2.2
2014-Oct-22 13:47 109 6 gusting 8 -2.2
2014-Oct-22 13:42 098 5 gusting 11 -2.2
2014-Oct-22 13:37 109 5 gusting 11 -2.2
2014-Oct-22 13:32 121 5 gusting 10 -2.2
2014-Oct-22 13:27 117 5 gusting 10 -2.2
2014-Oct-22 13:22 111 6 gusting 10 -2.2
2014-Oct-22 13:17 099 6 gusting 10 -2.2
2014-Oct-22 13:12 113 6 gusting 10 -2.2
2014-Oct-22 13:07 092 6 gusting 10 -2.2
2014-Oct-22 13:02 103 6 gusting 10 -2.2
2014-Oct-22 12:57 109 6 gusting 9 -1.7
2014-Oct-22 12:52 113 5 gusting 10 -1.7
2014-Oct-22 12:47 094 5 gusting 10 -1.7
2014-Oct-22 12:42 095 6 gusting 12 -1.7
2014-Oct-22 12:37 096 5 gusting 12 -1.7
2014-Oct-22 12:32 110 6 gusting 13 -1.7
2014-Oct-22 12:27 127 6 gusting 13 -1.7
2014-Oct-22 12:22 119 6 gusting 12 -1.7
2014-Oct-22 12:17 132 5 gusting 12 -1.7
2014-Oct-22 12:12 106 6 gusting 11 -1.7
2014-Oct-22 12:07 113 6 gusting 11 -1.7
2014-Oct-22 12:02 126 6 gusting 11 -1.7
2014-Oct-22 11:57 088 6 gusting 11 -1.7
2014-Oct-22 11:52 097 6 gusting 12 -1.7
2014-Oct-22 11:47 103 6 gusting 12 -1.7
2014-Oct-22 11:42 119 6 gusting 12 -1.7
2014-Oct-22 11:37 096 7 gusting 12 -1.7
2014-Oct-22 11:32 082 6 gusting 12 -1.7
2014-Oct-22 11:27 113 6 gusting 12 -1.7
2014-Oct-22 11:22 074 6 gusting 12 -1.7
2014-Oct-22 11:17 102 6 gusting 12 -1.7
2014-Oct-22 11:12 105 6 gusting 13 -1.7
2014-Oct-22 11:07 126 5 gusting 13 -1.7
2014-Oct-22 11:02 101 6 gusting 13 -1.7
2014-Oct-22 10:57 086 7 gusting 13 -1.7
2014-Oct-22 10:52 109 7 gusting 13 -1.7
2014-Oct-22 10:47 123 7 gusting 13 -1.7
2014-Oct-22 10:42 130 6 gusting 11 -1.7
2014-Oct-22 10:37 113 6 gusting 11 -1.7
2014-Oct-22 10:32 095 7 gusting 12 -1.7
2014-Oct-22 10:27 109 6 gusting 12 -1.7
2014-Oct-22 10:22 071 6 gusting 11 -1.7
2014-Oct-22 10:17 076 6 gusting 12 -2.2
2014-Oct-22 10:12 131 6 gusting 12 -2.2
2014-Oct-22 10:07 084 6 gusting 13 -2.2
2014-Oct-22 10:02 088 6 gusting 13 -2.2
2014-Oct-22 09:57 110 6 gusting 13 -2.2
2014-Oct-22 09:52 146 6 gusting 13 -2.2
2014-Oct-22 09:47 090 6 gusting 13 -2.2
2014-Oct-22 09:42 062 6 gusting 10 -2.2
2014-Oct-22 09:37 062 6 gusting 10 -2.2
2014-Oct-22 09:32 115 6 gusting 12 -2.2
2014-Oct-22 09:27 107 6 gusting 12 -2.8
2014-Oct-22 09:22 106 6 gusting 11 -2.8
2014-Oct-22 09:17 107 5 gusting 11 -2.8
2014-Oct-22 09:12 080 6 gusting 9 -2.8
2014-Oct-22 09:07 115 5 gusting 9 -2.8
2014-Oct-22 09:02 126 5 gusting 10 -2.8
2014-Oct-22 08:57 100 6 gusting 11 -2.8
2014-Oct-22 08:52 120 6 gusting 11 -2.8
2014-Oct-22 08:47 111 6 gusting 11 -2.8
2014-Oct-22 08:42 103 5 gusting 10 -2.8
2014-Oct-22 08:37 101 5 gusting 10 -2.8
2014-Oct-22 08:32 132 5 gusting 10 -3.3
2014-Oct-22 08:27 137 6 gusting 10 -3.3
2014-Oct-22 08:22 095 6 gusting 10 -3.3
2014-Oct-22 08:17 105 4 gusting 5 -3.3
2014-Oct-22 08:12 107 2 gusting 7 -3.3
2014-Oct-22 08:07 026 2 gusting 7 -3.3
2014-Oct-22 08:02 109 3 gusting 8 -3.3
2014-Oct-22 07:57 095 3 gusting 8 -3.3
2014-Oct-22 07:52 057 3 gusting 8 -3.3
2014-Oct-22 07:47 074 2 gusting 8 -3.3
2014-Oct-22 07:42 079 4 gusting 8 -3.9
2014-Oct-22 07:37 115 5 gusting 8 -3.3
2014-Oct-22 07:32 112 4 gusting 7 -3.9
2014-Oct-22 07:27 128 3 gusting 7 -3.9
2014-Oct-22 07:22 059 2 gusting 6 -3.9
2014-Oct-22 07:17 134 2 gusting 6 -3.9
2014-Oct-22 07:12 056 2 gusting 10 -3.9
2014-Oct-22 07:07 105 3 gusting 10 -3.9
2014-Oct-22 07:02 096 3 gusting 10 -3.9
2014-Oct-22 06:57 086 3 gusting 11 -4.4
2014-Oct-22 06:52 051 3 gusting 11 -4.4
2014-Oct-22 06:47 079 4 gusting 11 -4.4
2014-Oct-22 06:42 069 3 gusting 11 -4.4
2014-Oct-22 06:37 058 3 gusting 8 -4.4
2014-Oct-22 06:32 067 3 gusting 8 -4.4
2014-Oct-22 06:27 062 2 gusting 6 -4.4
2014-Oct-22 06:22 087 2 gusting 6 -4.4
2014-Oct-22 06:17 063 2 gusting 7 -4.4
2014-Oct-22 06:12 053 1 gusting 7 -4.4
2014-Oct-22 06:07 058 1 gusting 7 -5.0
2014-Oct-22 06:02 084 2 gusting 7 -5.0
2014-Oct-22 05:57 075 3 gusting 7 -5.0
2014-Oct-22 05:52 071 3 gusting 6 -5.0
2014-Oct-22 05:47 063 3 gusting 6 -5.0
2014-Oct-22 05:42 049 2 gusting 5 -5.0
2014-Oct-22 05:37 094 1 gusting 5 -5.0
2014-Oct-22 05:32 086 1 gusting 7 -5.0
2014-Oct-22 05:27 061 2 gusting 7 -5.0
2014-Oct-22 05:22 078 2 gusting 7 -4.4
2014-Oct-22 05:17 086 3 gusting 7 -4.4
2014-Oct-22 05:12 079 3 gusting 8 -4.4
2014-Oct-22 05:07 101 3 gusting 8 -4.4
2014-Oct-22 05:02 078 3 gusting 8 -4.4
2014-Oct-22 04:57 050 3 gusting 5 -4.4
2014-Oct-22 04:52 069 1 gusting 5 -4.4
2014-Oct-22 04:47 091 1 gusting 8 -4.4
2014-Oct-22 04:42 085 1 gusting 8 -4.4
2014-Oct-22 04:37 100 2 gusting 8 -3.9
2014-Oct-22 04:32 082 2 gusting 10 -3.9
2014-Oct-22 04:27 118 3 gusting 10 -3.9
2014-Oct-22 04:22 113 3 gusting 10 -3.9
2014-Oct-22 04:17 096 3 gusting 12 -3.9
2014-Oct-22 04:12 061 3 gusting 12 -3.9
2014-Oct-22 04:07 101 5 gusting 12 -3.9
2014-Oct-22 04:02 068 6 gusting 9 -3.9
2014-Oct-22 03:57 086 6 gusting 9 -3.9
2014-Oct-22 03:52 064 5 gusting 9 -3.9
2014-Oct-22 03:47 108 5 gusting 8 -3.3
2014-Oct-22 03:42 113 4 gusting 8 -3.9
2014-Oct-22 03:37 101 3 gusting 8 -3.3
2014-Oct-22 03:32 062 3 gusting 12 -3.3
2014-Oct-22 03:27 050 4 gusting 12 -3.3
2014-Oct-22 03:22 121 5 gusting 12 -3.3
2014-Oct-22 03:17 073 4 gusting 12 -3.3
2014-Oct-22 03:12 084 4 gusting 9 -3.3
2014-Oct-22 03:07 079 4 gusting 9 -3.3
2014-Oct-22 03:02 099 4 gusting 9 -3.3
2014-Oct-22 02:57 074 4 gusting 9 -3.3
2014-Oct-22 02:52 055 5 gusting 9 -3.3
2014-Oct-22 02:47 054 5 gusting 9 -3.3
2014-Oct-22 02:42 050 4 gusting 9 -2.8
2014-Oct-22 02:37 079 4 gusting 7 -2.8
2014-Oct-22 02:32 084 3 gusting 7 -2.8
2014-Oct-22 02:27 097 3 gusting 6 -2.8
2014-Oct-22 02:22 084 3 gusting 6 -2.8
2014-Oct-22 02:17 057 3 gusting 7 -2.8
2014-Oct-22 02:12 057 2 gusting 7 -2.8
2014-Oct-22 02:07 060 2 gusting 7 -2.8
2014-Oct-22 02:02 094 3 gusting 8 -2.8
2014-Oct-22 01:57 094 3 gusting 8 -2.8
2014-Oct-22 01:52 121 4 gusting 7 -2.8
2014-Oct-22 01:47 098 4 gusting 7 -2.2
2014-Oct-22 01:42 123 3 gusting 8 -2.2
2014-Oct-22 01:37 108 3 gusting 8 -2.2
2014-Oct-22 01:32 119 4 gusting 6 -2.2
2014-Oct-22 01:27 111 3 gusting 6 -2.2
2014-Oct-22 01:22 121 4 gusting 8 -2.2
2014-Oct-22 01:17 095 4 gusting 8 -2.2
2014-Oct-22 01:12 135 3 gusting 9 -2.2
2014-Oct-22 01:07 125 4 gusting 9 -2.2
2014-Oct-22 01:02 124 5 gusting 9 -2.2
2014-Oct-22 00:57 141 6 gusting 9 -2.2
2014-Oct-22 00:52 119 6 gusting 8 -2.2
2014-Oct-22 00:47 121 5 gusting 8 -2.2
2014-Oct-22 00:42 134 5 gusting 10 -2.2
2014-Oct-22 00:37 120 5 gusting 10 -2.2
2014-Oct-22 00:32 096 4 gusting 8 -2.2
2014-Oct-22 00:27 121 3 gusting 8 -2.2
2014-Oct-22 00:22 103 4 gusting 10 -2.2
2014-Oct-22 00:17 094 5 gusting 10 -2.2
2014-Oct-22 00:12 095 5 gusting 9 -2.2
2014-Oct-22 00:07 058 4 gusting 9 -2.2
2014-Oct-22 00:02 079 4 gusting 10 -2.2
2014-Oct-21 23:57 080 5 gusting 10 -2.2
2014-Oct-21 23:52 095 4 gusting 10 -2.2
2014-Oct-21 23:47 098 3 gusting 10 -2.2
2014-Oct-21 23:42 107 4 gusting 10 -2.2
2014-Oct-21 23:37 107 5 gusting 10 -2.2
2014-Oct-21 23:32 111 4 gusting 11 -2.2
2014-Oct-21 23:27 104 3 gusting 11 -2.2
2014-Oct-21 23:22 084 5 gusting 11 -2.2
2014-Oct-21 23:17 052 5 gusting 11 -2.2
2014-Oct-21 23:12 100 4 gusting 11 -2.2
2014-Oct-21 23:07 115 5 gusting 11 -2.2
2014-Oct-21 23:02 095 5 gusting 13 -2.2
2014-Oct-21 22:57 133 4 gusting 13 -2.2
2014-Oct-21 22:52 084 5 gusting 11 -2.2
2014-Oct-21 22:47 091 5 gusting 11 -2.2
2014-Oct-21 22:42 109 5 gusting 13 -2.2
2014-Oct-21 22:37 121 5 gusting 13 -2.2
2014-Oct-21 22:32 101 6 gusting 13 -2.2
2014-Oct-21 22:27 092 6 gusting 13 -2.2
2014-Oct-21 22:22 113 6 gusting 13 -1.7
2014-Oct-21 22:17 113 6 gusting 11 -1.7
2014-Oct-21 22:12 098 6 gusting 13 -1.7
2014-Oct-21 22:07 126 6 gusting 13 -1.7
2014-Oct-21 22:02 102 6 gusting 11 -1.7
2014-Oct-21 21:57 088 6 gusting 11 -1.7
2014-Oct-21 21:52 114 4 gusting 9 -1.7
2014-Oct-21 21:47 069 3 gusting 9 -1.7
2014-Oct-21 21:42 103 3 gusting 9 -1.7
2014-Oct-21 21:37 090 4 gusting 9 -1.7
2014-Oct-21 21:32 096 4 gusting 8 -1.7
2014-Oct-21 21:27 124 5 gusting 8 -1.7
2014-Oct-21 21:22 117 5 gusting 7 -1.7
2014-Oct-21 21:17 097 4 gusting 7 -1.7
2014-Oct-21 21:12 105 3 gusting 10 -1.7
2014-Oct-21 21:07 102 4 gusting 10 -1.7
2014-Oct-21 21:02 105 5 gusting 11 -1.7
2014-Oct-21 20:57 077 6 gusting 11 -1.7
2014-Oct-21 20:52 050 5 gusting 11 -1.7
2014-Oct-21 20:47 119 6 gusting 9 -1.7
2014-Oct-21 20:37 096 4 gusting 11 -1.7
2014-Oct-21 20:32 108 6 gusting 12 -1.7
2014-Oct-21 20:27 116 5 gusting 12 -1.7
2014-Oct-21 20:22 106 4 gusting 12 -1.7
2014-Oct-21 20:17 079 5 gusting 12 -1.7
2014-Oct-21 20:12 103 5 gusting 8 -1.7
2014-Oct-21 20:07 114 4 gusting 8 -1.7
2014-Oct-21 20:02 115 4 gusting 11 -1.7
2014-Oct-21 19:57 057 4 gusting 13 -1.7
2014-Oct-21 19:52 146 5 gusting 13 -1.7
2014-Oct-21 19:47 075 5 gusting 13 -1.7
2014-Oct-21 19:42 097 4 gusting 10 -1.7
2014-Oct-21 19:37 063 5 gusting 10 -1.7
2014-Oct-21 19:32 080 5 gusting 13 -1.7
2014-Oct-21 19:27 103 6 gusting 13 -1.7
2014-Oct-21 19:22 132 6 gusting 17 -1.7
2014-Oct-21 19:17 122 7 gusting 17 -1.7
2014-Oct-21 19:12 094 7 gusting 14 -1.7
2014-Oct-21 19:07 138 7 gusting 14 -1.7
2014-Oct-21 19:02 131 7 gusting 14 -1.7
2014-Oct-21 18:57 120 7 gusting 13 -1.7
2014-Oct-21 18:52 140 6 gusting 13 -1.7
2014-Oct-21 18:47 108 6 gusting 13 -1.7
2014-Oct-21 18:42 130 6 gusting 12 -1.7
2014-Oct-21 18:37 120 6 gusting 12 -1.7
2014-Oct-21 18:32 111 5 gusting 14 -1.7
2014-Oct-21 18:27 093 5 gusting 14 -1.7
2014-Oct-21 18:22 096 6 gusting 14 -1.7
2014-Oct-21 18:17 115 6 gusting 14 -1.7
2014-Oct-21 18:12 111 6 gusting 9 -1.7
2014-Oct-21 18:07 100 4 gusting 9 -1.7
2014-Oct-21 18:02 096 4 gusting 12 -1.7
2014-Oct-21 17:57 100 4 gusting 12 -1.7
2014-Oct-21 17:52 087 5 gusting 10 -1.7
2014-Oct-21 17:47 078 5 gusting 11 -1.7
2014-Oct-21 17:42 059 5 gusting 13 -1.7
2014-Oct-21 17:37 088 6 gusting 13 -1.7
2014-Oct-21 17:32 109 6 gusting 13 -1.7
2014-Oct-21 17:27 096 6 gusting 12 -1.7
2014-Oct-21 17:22 105 6 gusting 15 -1.7
2014-Oct-21 17:17 099 6 gusting 15 -1.7
2014-Oct-21 17:12 094 6 gusting 14 -1.7
2014-Oct-21 17:07 061 6 gusting 14 -1.7
2014-Oct-21 17:02 047 6 gusting 14 -1.7